GFSSE_prec_cthk_159.txt.gz
RH
43 26 25 29 33 36 38 42 35 31 30 31 33 34 34 34 33 33 33 33 35 33 33 34 33 33 31 29 28 27 24 21 20 19 19 20 24 27 30 33 42 56 46
41 28 27 31 35 39 40 42 39 38 31 33 33 33 33 33 33 33 33 34 35 35 35 35 35 35 33 32 31 29 26 24 23 22 21 21 25 28 31 37 47 62 48
42 26 28 34 37 36 38 45 46 40 36 39 37 36 35 35 35 35 36 36 36 36 36 35 35 35 36 35 34 33 30 28 26 25 26 53 70 31 38 41 48 55 52
40 34 33 35 33 32 43 47 50 40 37 40 37 36 35 36 36 37 38 39 39 39 38 38 37 37 37 35 35 35 34 32 30 29 42 48 50 37 40 45 47 52 55
50 47 36 41 45 54 54 51 44 41 43 41 39 37 36 37 39 40 41 41 41 42 42 42 43 43 43 42 41 39 39 37 35 35 49 47 48 42 39 47 54 58 62
56 50 50 52 56 56 45 47 46 46 46 44 42 40 39 40 41 42 43 43 40 40 41 39 40 42 45 44 45 46 46 45 43 49 74 52 43 47 43 46 53 59 60
55 50 51 52 49 43 47 51 51 51 48 46 45 43 43 44 44 44 44 41 38 37 39 38 41 45 51 52 50 48 49 52 49 54 62 60 58 49 39 46 50 56 54
53 49 46 48 47 49 51 57 55 51 48 47 46 45 45 45 45 46 43 39 38 37 37 38 39 42 45 47 47 48 49 52 57 60 60 62 61 51 49 46 45 48 52
48 48 47 48 52 55 56 55 49 46 45 45 45 46 45 44 44 44 37 36 36 36 35 36 36 37 38 41 44 46 50 53 57 63 69 72 67 60 55 48 50 49 64
48 48 44 49 53 53 50 45 44 43 42 42 43 44 44 44 43 37 34 35 35 35 35 35 35 36 37 39 41 44 47 48 53 56 62 67 70 63 56 54 53 54 65
48 43 40 42 43 42 40 40 40 41 42 42 42 44 42 40 36 31 32 32 34 35 35 37 39 41 43 44 43 43 48 48 51 55 56 71 77 75 64 60 52 56 67
41 37 34 36 35 35 34 35 35 36 35 35 34 34 32 34 34 33 30 29 28 29 33 35 39 40 43 45 51 49 46 48 52 55 59 59 66 66 69 60 53 57 65
39 35 30 32 33 34 31 29 27 25 23 22 25 29 30 30 28 31 31 29 28 28 32 34 36 37 38 41 43 46 47 49 50 55 54 61 64 53 58 62 62 60 67
38 35 33 32 31 28 24 25 21 19 19 19 20 22 24 27 26 28 28 27 25 24 24 24 27 25 25 33 40 43 45 46 48 47 47 48 42 36 39 45 47 55 59
36 33 33 31 25 21 22 19 19 19 21 20 21 22 23 24 23 23 22 23 22 22 22 22 23 22 23 23 23 24 29 33 34 33 35 40 40 37 37 38 41 50 53
33 32 30 26 20 19 20 20 21 22 23 23 22 21 21 20 20 21 21 21 19 18 17 17 16 16 16 17 18 19 20 22 28 31 32 34 34 39 41 42 43 42 45
33 32 28 23 20 21 22 23 24 25 25 24 23 23 22 22 22 20 19 18 18 18 18 17 16 16 15 15 14 16 14 18 21 25 29 34 37 43 42 42 42 41 40
36 32 29 26 24 25 27 27 28 28 28 27 27 26 25 23 22 22 22 21 21 22 22 20 19 18 17 16 16 15 15 14 17 19 22 29 36 37 40 42 41 43 43
34 32 32 30 30 31 32 32 31 31 32 32 31 28 26 25 25 25 26 26 25 25 24 23 24 23 20 21 18 16 16 18 18 19 22 30 27 29 34 36 39 44 49
35 35 36 36 34 35 35 36 36 36 36 35 32 31 30 29 29 30 31 31 30 29 28 27 26 25 24 24 19 22 21 20 20 25 30 28 23 23 26 31 33 36 42
35 38 39 40 39 39 40 42 42 43 42 37 35 33 33 32 32 33 36 36 33 32 31 29 28 27 29 26 27 22 21 26 29 28 33 29 26 24 22 25 29 34 39
38 44 44 46 46 48 46 46 46 46 46 42 38 37 37 36 37 38 39 39 36 34 34 33 31 30 32 30 27 25 28 31 34 32 33 33 31 31 30 27 28 28 35
43 47 48 50 51 52 51 51 51 50 45 43 43 42 41 41 41 42 45 41 41 41 41 37 33 32 34 32 31 32 30 33 31 36 36 37 34 29 27 31 31 28 31
48 52 53 54 55 56 55 55 54 52 49 50 50 45 43 43 45 49 49 45 43 43 42 39 35 32 29 32 31 32 35 35 34 32 33 35 32 31 29 30 31 32 31
50 54 58 59 59 59 58 59 59 57 56 55 52 48 48 50 55 53 48 48 50 48 43 36 31 29 30 31 31 32 33 41 41 38 38 36 34 35 36 35 32 30 31
51 55 60 62 61 63 65 66 64 62 60 56 55 56 58 60 57 55 52 52 51 47 41 36 32 30 28 30 31 31 31 34 35 35 35 35 34 34 36 36 32 30 30

GFSSE_prec_cthk_165.txt.gz
RH
41 31 24 21 20 20 22 24 27 29 34 38 36 33 34 29 28 29 28 30 31 30 31 31 31 31 30 29 28 27 24 23 21 21 21 25 29 27 29 32 34 40 42
42 42 30 24 21 22 23 26 27 31 36 37 35 35 35 29 27 29 30 31 32 32 32 32 32 31 32 31 29 29 28 27 25 26 35 46 60 45 36 33 40 41 41
44 39 27 26 23 24 24 26 29 31 35 40 36 36 33 29 29 30 31 32 32 33 33 34 35 35 35 34 33 32 32 32 31 39 44 52 57 44 37 37 42 46 47
36 29 25 23 23 26 25 27 30 32 34 38 33 34 32 31 30 32 33 34 34 31 33 34 33 35 38 38 38 38 37 37 36 45 50 55 48 45 44 44 45 46 48
32 26 23 22 26 26 26 29 38 39 33 36 32 33 32 32 32 33 34 35 34 30 31 31 32 33 35 40 41 41 39 35 33 46 54 59 54 50 48 48 49 50 51
33 25 22 26 26 27 30 38 40 39 35 35 33 35 34 33 33 33 34 35 34 28 27 29 30 33 35 39 38 38 36 35 32 44 51 53 58 54 51 45 51 56 58
27 26 25 27 29 34 36 40 38 38 38 38 38 36 35 34 34 35 35 36 34 29 28 29 29 30 32 35 38 39 40 40 37 36 43 48 56 58 56 48 45 54 57
35 27 27 31 35 34 39 39 38 39 40 41 41 38 38 36 35 36 37 37 33 30 30 30 30 31 32 34 35 37 39 39 41 42 40 46 50 61 60 56 54 51 52
39 33 32 35 36 35 36 38 39 42 44 44 41 39 39 38 37 38 38 37 34 32 31 30 31 32 33 34 35 36 38 38 38 41 45 44 45 51 62 64 56 52 48
40 35 35 36 39 37 36 40 46 47 48 42 40 40 40 39 38 39 38 34 32 30 30 30 30 31 33 34 35 34 36 38 38 39 45 47 47 50 56 62 64 62 58
39 37 37 37 41 41 41 44 48 46 43 40 40 41 41 41 39 37 33 30 29 29 29 28 27 29 29 32 33 35 36 35 36 39 45 52 58 64 65 69 73 74 67
38 41 38 39 42 44 44 44 40 39 39 40 40 40 39 35 30 28 29 29 28 27 26 26 24 25 27 32 35 36 36 34 40 41 43 47 46 53 62 65 63 71 73
38 41 44 41 40 44 39 35 35 35 35 34 33 32 29 28 28 29 26 25 25 24 23 23 22 24 26 28 31 33 35 38 41 41 42 40 44 49 54 52 60 68 64
41 42 44 44 43 38 34 33 32 30 28 27 26 26 25 27 27 28 27 25 23 21 20 19 19 19 20 20 21 23 25 26 35 38 40 43 44 47 49 48 51 55 60
41 41 43 43 41 40 35 32 27 22 20 19 22 24 25 25 25 26 24 23 21 19 18 17 16 16 16 16 16 16 17 18 19 22 25 27 29 32 36 38 37 39 43
43 43 44 46 43 41 36 32 25 20 18 19 21 23 25 26 25 24 23 23 21 19 18 18 18 18 18 17 17 17 17 16 16 16 19 21 23 24 28 29 31 32 37
44 46 48 48 42 40 37 31 24 19 19 21 22 25 26 26 26 25 25 24 23 22 22 22 22 22 22 21 21 20 19 18 18 18 20 20 21 21 23 27 32 37 40
50 49 48 43 42 42 38 33 24 21 21 23 26 28 29 29 29 28 28 27 27 27 26 26 25 25 25 25 25 24 23 22 22 24 24 24 25 28 30 31 29 30 34
51 50 50 48 44 42 36 31 25 22 23 26 29 31 32 32 32 31 31 32 31 31 30 29 29 29 29 29 28 27 26 26 28 29 32 33 34 35 32 29 28 29 28
51 49 49 47 43 41 36 32 29 27 26 29 32 34 34 34 35 35 36 36 36 36 34 33 32 32 32 32 30 31 31 33 36 41 42 40 38 36 33 28 25 26 29
50 48 47 47 43 41 39 36 33 32 31 33 36 37 37 37 38 39 39 39 39 39 38 36 36 37 37 36 33 37 38 42 43 45 43 42 39 34 32 30 28 25 24
48 49 47 45 45 42 44 43 40 37 36 38 40 40 41 40 41 43 43 44 44 43 42 40 40 40 41 36 35 36 43 47 46 45 43 40 39 37 34 31 29 27 27
44 47 50 49 46 46 48 46 45 43 43 44 44 45 45 45 47 48 49 49 49 48 46 45 46 44 41 40 39 37 37 41 44 44 39 36 35 34 31 30 31 31 30
46 49 53 52 49 49 49 49 49 50 51 51 50 50 50 51 51 53 54 56 55 52 51 50 50 47 44 39 36 31 29 31 34 36 37 37 33 30 28 27 28 28 28
47 50 54 58 58 56 54 54 55 57 57 55 55 55 55 57 58 60 61 60 58 56 55 56 55 53 46 35 32 31 30 31 31 29 28 26 25 28 28 28 27 29 27
53 57 62 66 65 62 63 67 66 64 59 59 61 62 61 62 63 65 64 62 60 60 62 64 61 57 45 36 32 29 27 29 29 26 25 24 24 29 32 33 35 34 33

GFSSE_prec_cthk_171.txt.gz
RH
26 27 31 33 30 27 27 27 27 29 31 31 35 37 32 30 31 30 27 28 29 29 29 29 29 29 28 28 27 27 26 27 28 31 41 48 36 35 37 38 38 38 38
27 29 33 36 33 27 27 26 27 29 32 34 36 36 38 34 33 32 28 30 31 31 31 31 30 30 29 29 29 29 30 33 38 43 54 51 49 42 40 44 45 40 41
30 32 35 34 32 27 25 25 26 28 32 36 38 37 37 37 33 30 30 31 32 32 34 34 34 35 34 34 35 35 34 34 39 43 48 52 45 47 49 54 49 49 46
34 37 41 38 31 23 21 22 26 28 32 38 39 39 39 37 33 30 31 33 33 31 32 34 32 32 34 35 37 37 34 33 36 40 45 47 43 45 48 53 59 56 53
39 41 35 33 28 22 21 23 26 28 32 37 42 39 42 38 33 31 32 33 34 30 30 32 32 32 35 38 36 33 32 30 30 37 43 46 42 42 46 47 52 56 56
36 36 33 27 24 23 21 23 27 28 30 35 41 37 39 34 34 33 33 32 34 33 27 29 29 31 33 36 37 38 35 32 31 35 39 42 43 43 47 46 48 52 56
34 33 31 26 25 23 22 24 26 27 33 38 40 40 37 35 34 34 34 33 33 34 30 27 28 28 28 29 30 32 34 35 31 31 37 40 43 44 49 55 52 50 49
43 38 29 26 27 26 24 26 29 34 36 38 38 41 38 36 36 34 34 34 33 33 31 28 27 26 27 27 27 27 29 32 35 35 33 33 37 42 46 55 59 61 58
43 36 31 27 27 27 28 30 35 36 39 40 39 41 42 39 37 36 34 35 34 33 30 27 26 25 25 25 26 27 28 28 31 35 38 37 34 38 42 50 61 62 61
45 42 26 28 30 30 31 36 38 40 41 41 41 44 45 40 38 37 36 36 36 32 28 26 25 24 24 25 24 26 27 28 29 31 33 37 39 37 40 46 56 61 62
43 47 34 30 33 34 34 37 38 40 40 40 42 44 44 40 37 37 36 34 30 25 25 25 25 24 24 24 24 25 27 28 28 30 31 32 36 40 45 50 54 58 63
42 44 42 34 38 36 37 37 39 41 42 43 44 43 39 38 37 34 31 28 24 24 23 23 22 21 20 20 22 24 27 28 30 29 32 32 34 38 40 44 49 53 60
47 46 44 39 43 41 39 39 40 41 42 42 39 35 35 34 31 27 24 22 22 22 22 20 18 16 17 18 20 21 24 25 25 30 32 33 31 34 38 40 44 48 53
43 44 43 41 41 41 40 40 43 43 43 39 35 33 31 26 23 21 19 19 20 20 19 19 18 18 18 18 18 18 20 21 23 24 25 28 33 34 36 39 40 42 47
42 43 40 39 38 39 41 41 43 43 43 37 35 30 28 24 22 20 21 22 22 22 22 21 20 20 20 19 19 19 19 19 20 21 21 23 24 25 27 28 29 33 35
44 41 41 45 47 43 43 44 45 45 41 37 32 25 23 24 24 24 25 26 27 25 24 23 23 23 23 23 23 23 22 22 22 21 21 21 22 22 23 26 28 29 31
44 45 44 47 48 52 47 49 51 49 41 34 28 24 23 26 27 27 28 29 30 28 27 27 27 28 29 29 28 28 27 26 26 26 26 27 28 28 28 30 31 31 32
46 46 49 50 49 52 49 51 53 48 42 37 32 27 25 27 29 29 30 31 31 30 31 31 32 32 32 33 33 32 31 30 30 31 32 33 34 36 35 34 33 32 31
45 46 45 45 51 55 52 52 52 49 45 39 35 32 30 30 29 30 31 32 32 32 34 35 35 35 36 36 36 35 35 36 37 39 40 41 39 38 38 36 33 31 30
48 50 54 52 52 56 57 57 55 53 50 44 39 36 35 33 31 31 32 32 32 34 36 38 39 39 40 40 41 41 41 43 45 46 46 44 41 40 39 36 34 31 30
52 56 56 54 56 58 59 60 62 63 60 55 45 38 35 35 33 32 33 33 35 38 39 42 43 44 44 45 46 50 53 54 53 51 50 48 46 42 38 37 33 31 30
44 46 55 57 60 63 64 65 69 72 68 60 49 45 40 38 37 37 38 39 41 43 45 47 49 50 50 53 55 55 59 59 58 56 54 51 46 43 40 37 35 32 30
45 44 50 55 62 67 73 77 78 80 80 68 55 46 43 43 43 43 44 46 48 50 50 51 53 56 59 59 61 59 60 59 58 56 55 52 48 44 39 35 33 30 29
47 52 62 69 71 76 81 83 85 84 84 73 64 57 46 47 48 49 52 54 56 55 56 59 59 61 63 63 60 61 55 58 60 56 54 54 50 46 39 31 27 25 23
51 56 63 69 74 79 83 91 89 91 83 76 68 64 58 55 57 59 59 58 60 64 63 60 63 65 65 64 63 61 59 57 59 59 58 55 49 41 30 29 27 25 25
58 63 70 74 80 86 90 93 95 94 86 80 75 70 69 66 65 66 67 68 66 65 65 66 66 67 67 67 67 64 63 62 59 56 56 49 43 40 38 34 31 28 27

GFSSE_prec_cthk_174.txt.gz
RH
28 29 30 32 35 36 35 31 27 26 27 28 30 33 37 37 36 35 34 29 30 30 30 30 30 30 30 29 28 27 29 30 34 44 46 43 43 49 45 41 39 38 38
28 28 33 37 39 41 40 34 29 27 29 30 33 34 34 36 37 37 32 30 30 32 32 32 32 32 32 31 31 31 34 38 39 46 46 43 40 41 45 48 47 43 42
27 31 35 39 37 38 38 34 29 28 30 32 34 35 37 36 36 36 32 30 31 31 32 34 35 36 36 37 37 37 35 37 37 39 45 36 39 39 44 49 54 52 48
29 35 40 40 37 34 32 31 29 29 31 32 35 36 39 36 38 37 31 30 31 31 29 32 31 31 33 36 37 35 32 30 32 36 40 37 35 36 40 46 52 58 56
33 37 39 35 32 30 28 28 27 28 31 33 37 35 38 37 38 34 32 31 31 31 26 28 28 29 32 35 34 31 30 30 30 35 38 39 36 37 44 44 52 56 60
32 32 29 26 25 24 23 24 26 28 30 32 35 38 38 36 36 35 34 32 31 31 31 23 24 25 29 32 34 33 31 29 29 31 36 38 39 41 43 44 45 51 59
34 35 35 30 27 24 23 22 25 29 30 29 36 41 39 38 36 36 35 34 32 32 32 27 23 24 26 27 28 29 31 32 30 27 32 35 36 40 44 49 50 48 50
42 44 38 35 29 24 23 23 24 28 30 34 39 41 41 40 37 36 37 35 34 33 32 30 26 24 24 25 26 27 30 32 33 35 29 27 31 35 41 45 52 54 56
37 43 39 36 29 24 25 27 25 27 33 35 40 43 42 42 39 37 38 37 35 34 33 28 24 23 23 24 25 26 26 27 30 33 36 36 31 30 35 43 45 52 56
41 43 41 37 33 26 28 31 30 33 39 38 41 43 43 45 43 41 38 37 36 34 31 26 23 21 21 21 22 24 25 26 27 30 32 34 36 36 35 37 44 48 54
43 43 41 41 38 29 31 34 32 36 38 42 43 42 47 48 45 41 38 38 37 33 30 25 22 21 20 21 22 22 22 24 24 24 28 30 33 35 37 42 45 48 54
42 43 42 42 39 32 37 38 36 37 36 40 41 45 47 48 43 40 40 36 33 30 27 24 22 20 19 19 19 20 22 25 25 25 26 29 32 34 36 39 43 49 53
43 45 45 44 40 37 41 43 39 38 38 38 40 41 43 39 40 38 35 31 27 25 24 22 20 18 17 17 18 19 21 23 24 24 27 31 34 34 36 40 43 45 50
45 46 42 43 42 43 42 45 45 43 42 41 43 43 37 35 34 31 28 23 21 21 20 19 19 18 18 18 19 19 20 21 22 24 25 26 27 30 34 38 41 42 42
48 49 48 45 48 45 45 46 47 49 49 48 46 42 36 33 29 25 22 22 20 20 21 21 20 20 20 20 20 21 21 21 22 22 23 24 24 26 28 33 33 35 33
54 55 55 52 53 51 51 52 52 53 53 53 50 41 37 30 26 24 23 23 24 24 24 23 23 22 22 23 24 25 26 26 26 26 27 27 27 27 28 31 35 33 29
54 56 54 51 51 54 55 55 57 57 57 57 55 47 39 31 26 24 25 27 27 27 26 26 26 26 27 28 29 29 30 30 31 30 31 31 31 32 34 35 36 35 34
49 55 55 59 52 55 59 59 63 61 61 61 55 48 40 34 29 27 26 27 28 29 29 28 29 30 31 31 32 32 32 34 35 35 35 37 38 41 41 40 38 37 36
48 54 58 59 55 54 57 63 67 67 63 62 56 49 42 37 36 32 29 28 29 30 30 30 31 33 34 35 35 36 37 40 42 43 45 46 46 46 45 42 39 37 34
49 52 55 54 54 56 58 61 63 65 63 59 57 51 45 41 40 39 35 31 29 29 31 31 32 35 38 39 39 41 43 46 48 50 51 51 51 49 46 44 41 38 34
49 51 52 52 55 59 63 62 65 68 70 70 67 63 55 51 47 45 42 39 35 32 32 34 35 36 38 41 43 47 50 53 55 59 57 57 56 52 49 45 43 39 35
45 52 53 53 58 65 67 69 67 71 72 73 74 74 67 57 51 51 47 44 41 40 41 41 41 42 45 47 49 53 62 65 64 62 61 60 58 54 50 48 45 40 35
38 50 57 57 64 67 71 74 78 80 85 84 86 88 84 73 62 51 48 47 47 48 48 50 52 52 51 55 59 61 64 63 62 61 61 61 59 55 52 50 49 43 38
44 52 55 58 67 71 77 83 85 86 91 91 92 96 90 79 70 62 52 50 51 52 54 55 61 56 58 61 62 64 65 65 63 62 61 60 59 58 56 55 52 45 38
53 56 58 61 72 76 83 87 90 90 92 96 97 92 82 78 71 69 64 59 56 58 62 61 59 66 67 66 65 66 70 63 63 61 60 61 62 60 59 53 48 42 38
56 60 65 67 73 79 87 91 95 97 96 95 90 83 82 77 75 71 70 67 68 70 66 68 72 69 68 71 67 66 66 65 62 61 60 61 61 60 55 53 48 45 39